Regional Weather Roundup
Issued by NWS

Home | Current Version | Previous Version | Graphics & Text | Print | Product List | Glossary On
Versions: 1 2 3 4 5 6 7 8 9 10 11 12 13 14 15 16 17 18 19 20 21 22 23 24 25 26 27 28 29 30 31 32 33 34 35 36 37 38 39 40 41 42 43 44 45 46 47 48 49 50
000
ASUS43 KTOP 050859
RWRKS

WEATHER ROUNDUP FOR KANSAS
NATIONAL WEATHER SERVICE GOODLAND KS
400 AM CDT THU MAY 05 2016

NOTE:  "FAIR" INDICATES FEW OR NO CLOUDS BELOW 12,000 FEET WITH NO
SIGNIFICANT WEATHER AND/OR OBSTRUCTIONS TO VISIBILITY.

KSZ001>006-013>018-027>032-041>047-051000-
NORTHWEST KANSAS

CITY           SKY/WX    TMP DP  RH WIND       PRES   REMARKS
GOODLAND       CLEAR     53  42  66 SW9       30.10F
HAYS           CLEAR     43  34  70 W7        30.08S
HILL CITY      CLEAR     44  41  89 NW3       30.10S
RUSSELL        CLEAR     48  41  76 SW6       30.07S
$$

KSZ061>065-074>080-084>089-051000-
SOUTHWEST KANSAS

CITY           SKY/WX    TMP DP  RH WIND       PRES   REMARKS
DODGE CITY     CLEAR     49  41  74 S6        30.10F
ELKHART          N/A     57  40  53 SW5         N/A
GARDEN CITY    CLEAR     49  42  77 S7        30.09F
GREAT BEND     CLEAR     45  36  70 CALM      30.07F
LIBERAL        CLEAR     52  41  66 CALM      30.12S
$$

KSZ066>073-081>083-090>101-051000-
SOUTHEAST KANSAS

CITY           SKY/WX    TMP DP  RH WIND       PRES   REMARKS
CHANUTE        CLEAR     46  41  82 NW3       30.03S
COFFEYVILLE    CLEAR     47  44  90 NW5       30.02F
HUTCHINSON     CLEAR     41  38  89 W5        30.06S
MEDICINE LODGE   N/A     44  42  93 NE5       30.07S
NEWTON         CLEAR     48  34  57 N5        30.07S
PARSONS        CLEAR     43  42  97 CALM      30.04S
WICHITA INTL   CLEAR     49  40  71 NW7       30.05R
WICHITA JABRA  CLEAR     51  37  58 NW6       30.05S
WINFIELD       CLEAR     45  41  86 CALM      30.30F
$$

KSZ007>012-019>026-033>040-048>060-102>105-051000-
NORTHEAST KANSAS

CITY           SKY/WX    TMP DP  RH WIND       PRES   REMARKS
CONCORDIA      CLEAR     45  37  73 W7        30.06S
EMPORIA        CLEAR     48  40  73 W5        30.04S
LAWRENCE       CLEAR     41  39  93 NW7       30.02R
MANHATTAN      CLEAR     41  38  89 CALM      30.05S
OLATHE IND     CLEAR     48  40  73 W6        30.02S
OLATHE EXE     CLEAR     50  39  66 NW6       30.01S
SALINA         CLEAR     46  39  76 CALM      30.06S
TOPEKA BILLARD CLEAR     48  43  82 W3        30.03R
TOPEKA FORBES  CLEAR     45  40  82 CALM      30.02S
$$




USA.gov is the U.S. government's official web portal to all federal, state and local government web resources and services.